Location: Unspecified
(0.0000°N, 0.0000°E)
Time: 13:49:52
(UTC+00:00)

LilacSat-2 - Visible Passes

Search period start: 23 May 2019 00:00
Search period end: 02 June 2019 00:00
Orbit: 514 x 535 km, 97.5° (Epoch: 23 May)

Date Brightness Start Highest point End Pass type
(mag) Time Alt. Az. Time Alt. Az. Time Alt. Az.
24 May ? 05:23:25 10° NNE 05:27:13 66° E 05:31:00 10° S visible
25 May ? 05:11:33 10° NNE 05:15:10 40° ESE 05:18:46 10° S visible
26 May ? 04:59:53 10° NE 05:03:07 26° ESE 05:06:20 10° SSE visible
26 May ? 18:29:57 10° WSW 18:31:02 11° WSW 18:32:08 10° W visible
27 May ? 04:48:31 10° ENE 04:51:04 17° ESE 04:53:37 10° SE visible
28 May ? 04:37:51 10° E 04:39:02 11° ESE 04:40:12 10° ESE visible
01 Jun ? 05:21:02 10° NNE 05:24:47 60° E 05:28:32 10° S visible
